This is the latest recevied weather packets stored in our database for station/object PY2FGD-15. If no packets are shown the sender has not sent any weather packets the latest 10 day(s).
| Time | Temp. | Humidity | Pressure | Rain* | Wind** | Luminosity | Snow |
|---|---|---|---|---|---|---|---|
| 1777984203 | 20.56° C | 82% | 1021 hPa | 2.54 mm | - | - | - |
| 1777983003 | 20.56° C | 83% | 1021 hPa | 2.54 mm | - | - | - |
| 1777982406 | 20.56° C | 85% | 1021 hPa | 2.54 mm | - | - | - |
| 1777981204 | 20.56° C | 86% | 1021 hPa | 2.54 mm | - | - | - |
| 1777977605 | 19.44° C | 87% | 1020 hPa | 2.54 mm | - | - | - |
| 1777959603 | 23.33° C | 89% | 1020 hPa | 2.54 mm | - | - | - |
| 1777959008 | 23.33° C | 89% | 1020 hPa | 2.54 mm | - | - | - |
| 1777958403 | 22.78° C | 88% | 1020 hPa | 2.54 mm | - | - | - |
| 1777957204 | 23.33° C | 89% | 1020 hPa | 2.54 mm | - | - | - |
| 1777955408 | 23.33° C | 89% | 1020 hPa | 2.54 mm | - | - | - |
| 1777953604 | 23.33° C | 89% | 1020 hPa | 2.54 mm | - | - | - |
| 1777952404 | 13.89° C | 87% | 1020 hPa | 2.54 mm | - | - | - |
| 1777951208 | 15° C | 87% | 1020 hPa | 2.54 mm | - | - | - |
| 1777950006 | 15.56° C | 87% | 1020 hPa | 2.54 mm | - | - | - |
| 1777947603 | 17.22° C | 87% | 1019 hPa | 2.54 mm | - | - | - |
| 1777946405 | 17.78° C | 87% | 1019 hPa | 2.54 mm | - | - | - |
| 1777945203 | 18.89° C | 87% | 1019 hPa | 2.54 mm | - | - | - |
| 1777942205 | 19.44° C | 86% | 1019 hPa | 2.54 mm | - | - | - |
| 1777937403 | 20° C | 83% | 1019 hPa | 2.54 mm | - | - | - |
| 1777936203 | 20.56° C | 83% | 1018 hPa | 2.54 mm | - | - | - |
| 1777928404 | 21.67° C | 78% | 1016 hPa | 2.54 mm | - | - | - |
| 1777924203 | 23.33° C | 75% | 1016 hPa | 2.54 mm | - | - | - |
| 1777923004 | 25.56° C | 69% | 1016 hPa | 2.54 mm | - | - | - |
| 1777921203 | 26.67° C | 69% | 1016 hPa | 2.54 mm | - | - | - |
| 1777917003 | 21.67° C | 77% | 1017 hPa | 2.54 mm | - | - | - |
* Rain latest hour (hover to see other rain measurements)
** Current wind speed in m/s (hover to see current wind gust speed)